Simultaneous Nadir Overpasses (SNOs) Predictions

Prediction of SNOs between LANDSAT-8 and METOP-A Satellite Orbit:

Table of predicted SNOs for the next 14.0 days since TLE Epoch: 6/26/2021
Index Date (LANDSAT-8) Time (LANDSAT-8) Lat,Lon (LANDSAT-8) SZA (LANDSAT-8 ) Date (METOP-A) Time (METOP-A) Lat,Lon (METOP-A) SZA (METOP-A ) Distance(km) Time Diff (sec)
1 06/28/2021 05:02:47 -81.37, -31.44 119.42 06/28/2021 05:01:48 -81.38, -31.56 119.45 2.29 59
2 06/28/2021 05:52:14 81.35, 135.96 60.55 06/28/2021 05:52:28 81.36, 136.14 60.58 3.17 14
3 07/01/2021 00:37:03 -81.36, 34.90 119.29 07/01/2021 00:36:09 -81.37, 34.99 119.30 1.69 54
4 07/01/2021 01:26:29 81.37,-157.34 60.73 07/01/2021 01:26:49 81.36,-157.33 60.74 0.97 20
5 07/03/2021 20:11:17 -81.37, 101.60 119.05 07/03/2021 20:10:29 -81.36, 101.51 119.09 1.86 48
6 07/03/2021 21:00:44 81.36, -91.06 60.91 07/03/2021 21:01:10 81.36, -91.21 60.91 2.66 26
7 07/06/2021 15:45:33 -81.37, 167.88 118.82 07/06/2021 15:44:50 -81.36, 168.02 118.83 2.48 43
8 07/06/2021 16:35:00 81.35, -24.81 61.14 07/06/2021 16:35:31 81.36, -24.72 61.17 1.92 31
9 07/09/2021 11:19:49 -81.36,-125.87 118.54 07/09/2021 11:19:12 -81.37,-125.88 118.55 1.09 37



Historial Predications of SNOs between LANDSAT-8 and METOP-A
